Time,TemperatureF,DewpointF,PressureIn,WindDirection,WindDirectionDegrees,WindSpeedMPH,WindSpeedGustMPH,Humidity,HourlyPrecipIn,Conditions,Clouds,dailyrainin,SoftwareType,DateUTC
2013-05-20 00:00:00,55.9,55.9,30.19,North,-999,0.0,0.0,100,0.00,,,-99.99,WeatherLink 5.7,2013-05-20 04:00:00,
2013-05-20 00:11:00,56.0,56.0,30.18,North,-999,0.0,0.0,100,0.00,,,-99.99,WeatherLink 5.7,2013-05-20 04:11:00,
2013-05-20 00:21:00,56.0,56.0,30.18,North,-999,0.0,0.0,100,0.00,,,-99.99,WeatherLink 5.7,2013-05-20 04:21:00,
2013-05-20 00:31:00,56.0,56.0,30.18,North,-999,0.0,0.0,100,0.00,,,-99.99,WeatherLink 5.7,2013-05-20 04:31:00,
2013-05-20 00:41:00,56.0,56.0,30.17,North,-999,0.0,0.0,100,0.00,,,-99.99,WeatherLink 5.7,2013-05-20 04:41:00,
2013-05-20 00:51:00,56.0,56.0,30.17,North,-999,0.0,0.0,100,0.00,,,-99.99,WeatherLink 5.7,2013-05-20 04:51:00,
2013-05-20 01:01:00,56.0,56.0,30.17,North,-999,0.0,0.0,100,0.00,,,-99.99,WeatherLink 5.7,2013-05-20 05:01:00,
2013-05-20 01:11:00,56.0,56.0,30.17,North,-999,0.0,0.0,100,0.00,,,-99.99,WeatherLink 5.7,2013-05-20 05:11:00,
2013-05-20 01:21:00,56.0,56.0,30.17,North,-999,0.0,0.0,100,0.00,,,-99.99,WeatherLink 5.7,2013-05-20 05:21:00,
2013-05-20 01:31:00,56.0,56.0,30.16,North,-999,0.0,0.0,100,0.00,,,-99.99,WeatherLink 5.7,2013-05-20 05:31:00,
2013-05-20 01:41:00,56.1,56.1,30.15,North,-999,0.0,0.0,100,0.00,,,-99.99,WeatherLink 5.7,2013-05-20 05:41:00,
2013-05-20 01:51:00,56.0,56.0,30.15,North,-999,0.0,0.0,100,0.00,,,-99.99,WeatherLink 5.7,2013-05-20 05:51:00,
2013-05-20 02:01:00,56.1,56.1,30.13,North,-999,0.0,0.0,100,0.00,,,-99.99,WeatherLink 5.7,2013-05-20 06:01:00,
2013-05-20 02:11:00,56.1,56.1,30.13,North,-999,0.0,0.0,100,0.00,,,-99.99,WeatherLink 5.7,2013-05-20 06:11:00,
2013-05-20 02:21:00,56.1,56.1,30.13,North,-999,0.0,0.0,100,0.00,,,-99.99,WeatherLink 5.7,2013-05-20 06:21:00,
2013-05-20 02:31:00,56.1,56.1,30.13,North,-999,0.0,0.0,100,0.00,,,-99.99,WeatherLink 5.7,2013-05-20 06:31:00,
2013-05-20 02:41:00,56.0,56.0,30.12,North,-999,0.0,0.0,100,0.00,,,-99.99,WeatherLink 5.7,2013-05-20 06:41:00,
2013-05-20 02:51:00,56.0,56.0,30.11,North,-999,0.0,0.0,100,0.00,,,-99.99,WeatherLink 5.7,2013-05-20 06:51:00,
2013-05-20 03:01:00,56.0,56.0,30.11,North,-999,0.0,0.0,100,0.00,,,-99.99,WeatherLink 5.7,2013-05-20 07:01:00,
2013-05-20 03:11:00,56.0,56.0,30.11,North,-999,0.0,0.0,100,0.00,,,-99.99,WeatherLink 5.7,2013-05-20 07:11:00,
2013-05-20 03:21:00,56.0,56.0,30.11,North,-999,0.0,0.0,100,0.00,,,-99.99,WeatherLink 5.7,2013-05-20 07:21:00,
2013-05-20 03:31:00,56.0,56.0,30.10,North,-999,0.0,0.0,100,0.00,,,-99.99,WeatherLink 5.7,2013-05-20 07:31:00,
2013-05-20 03:41:00,56.0,56.0,30.10,North,-999,0.0,0.0,100,0.00,,,-99.99,WeatherLink 5.7,2013-05-20 07:41:00,
2013-05-20 03:51:00,56.0,56.0,30.11,North,-999,0.0,0.0,100,0.00,,,-99.99,WeatherLink 5.7,2013-05-20 07:51:00,
2013-05-20 04:01:00,56.0,56.0,30.10,North,-999,0.0,0.0,100,0.00,,,-99.99,WeatherLink 5.7,2013-05-20 08:01:00,
2013-05-20 04:10:00,56.0,56.0,30.11,North,-999,0.0,0.0,100,0.00,,,-99.99,WeatherLink 5.7,2013-05-20 08:10:00,
2013-05-20 04:21:00,56.1,56.1,30.11,North,-999,0.0,0.0,100,0.00,,,-99.99,WeatherLink 5.7,2013-05-20 08:21:00,
2013-05-20 04:31:00,56.2,56.2,30.11,North,-999,0.0,0.0,100,0.00,,,-99.99,WeatherLink 5.7,2013-05-20 08:31:00,
2013-05-20 04:41:00,56.2,56.2,30.11,North,-999,0.0,0.0,100,0.00,,,-99.99,WeatherLink 5.7,2013-05-20 08:41:00,
2013-05-20 04:51:00,56.2,56.2,30.10,North,-999,0.0,0.0,100,0.00,,,-99.99,WeatherLink 5.7,2013-05-20 08:51:00,
2013-05-20 05:01:00,56.3,56.3,30.09,North,-999,0.0,0.0,100,0.00,,,-99.99,WeatherLink 5.7,2013-05-20 09:01:00,
2013-05-20 05:10:00,56.3,56.3,30.10,North,-999,0.0,0.0,100,0.00,,,-99.99,WeatherLink 5.7,2013-05-20 09:10:00,
2013-05-20 05:21:00,56.3,56.3,30.10,North,-999,0.0,0.0,100,0.00,,,-99.99,WeatherLink 5.7,2013-05-20 09:21:00,
2013-05-20 05:31:00,56.3,56.3,30.10,North,-999,0.0,0.0,100,0.00,,,-99.99,WeatherLink 5.7,2013-05-20 09:31:00,
2013-05-20 05:41:00,56.3,56.3,30.10,North,-999,0.0,0.0,100,0.00,,,-99.99,WeatherLink 5.7,2013-05-20 09:41:00,
2013-05-20 05:51:00,56.3,56.3,30.10,North,-999,0.0,0.0,100,0.00,,,-99.99,WeatherLink 5.7,2013-05-20 09:51:00,
2013-05-20 06:01:00,56.3,56.3,30.10,North,-999,0.0,0.0,100,0.00,,,-99.99,WeatherLink 5.7,2013-05-20 10:01:00,
2013-05-20 06:11:00,56.4,56.4,30.10,North,-999,0.0,0.0,100,0.00,,,-99.99,WeatherLink 5.7,2013-05-20 10:11:00,
2013-05-20 06:21:00,56.4,56.4,30.11,North,-999,0.0,0.0,100,0.00,,,-99.99,WeatherLink 5.7,2013-05-20 10:21:00,
2013-05-20 06:31:00,56.5,56.5,30.10,North,-999,0.0,0.0,100,0.00,,,-99.99,WeatherLink 5.7,2013-05-20 10:31:00,
2013-05-20 06:41:00,56.5,56.5,30.10,North,-999,0.0,0.0,100,0.00,,,-99.99,WeatherLink 5.7,2013-05-20 10:41:00,
2013-05-20 06:51:00,56.6,56.6,30.11,North,-999,0.0,0.0,100,0.00,,,-99.99,WeatherLink 5.7,2013-05-20 10:51:00,
2013-05-20 07:01:00,56.7,56.7,30.10,North,-999,0.0,0.0,100,0.00,,,-99.99,WeatherLink 5.7,2013-05-20 11:01:00,
2013-05-20 07:11:00,56.8,56.8,30.11,North,-999,0.0,0.0,100,0.00,,,-99.99,WeatherLink 5.7,2013-05-20 11:11:00,
2013-05-20 07:21:00,57.0,57.0,30.11,North,-999,0.0,0.0,100,0.00,,,-99.99,WeatherLink 5.7,2013-05-20 11:21:00,
2013-05-20 07:31:00,57.1,57.1,30.12,North,-999,0.0,0.0,100,0.00,,,-99.99,WeatherLink 5.7,2013-05-20 11:31:00,
2013-05-20 07:41:00,57.3,57.3,30.12,North,-999,0.0,0.0,100,0.00,,,-99.99,WeatherLink 5.7,2013-05-20 11:41:00,
2013-05-20 07:51:00,57.5,57.5,30.12,North,-999,0.0,0.0,100,0.00,,,-99.99,WeatherLink 5.7,2013-05-20 11:51:00,
2013-05-20 08:01:00,57.6,57.6,30.12,North,-999,0.0,0.0,100,0.00,,,-99.99,WeatherLink 5.7,2013-05-20 12:01:00,
2013-05-20 08:11:00,57.8,57.8,30.12,North,-999,0.0,0.0,100,0.00,,,-99.99,WeatherLink 5.7,2013-05-20 12:11:00,
2013-05-20 08:21:00,58.1,-99.9,30.13,North,-999,0.0,0.0,-999,0.00,,,-99.99,WeatherLink 5.7,2013-05-20 12:21:00,
2013-05-20 08:31:00,58.4,58.4,30.12,North,-999,0.0,0.0,100,0.00,,,-99.99,WeatherLink 5.7,2013-05-20 12:31:00,
2013-05-20 08:41:00,58.7,58.7,30.12,North,-999,0.0,0.0,100,0.00,,,-99.99,WeatherLink 5.7,2013-05-20 12:41:00,
2013-05-20 08:51:00,59.0,59.0,30.12,North,-999,0.0,0.0,100,0.00,,,-99.99,WeatherLink 5.7,2013-05-20 12:51:00,
2013-05-20 09:01:00,59.4,59.4,30.12,North,-999,0.0,0.0,100,0.00,,,-99.99,WeatherLink 5.7,2013-05-20 13:01:00,
2013-05-20 09:10:00,59.9,59.9,30.12,North,-999,0.0,0.0,100,0.00,,,-99.99,WeatherLink 5.7,2013-05-20 13:10:00,
2013-05-20 09:21:00,60.3,60.3,30.12,SSE,157,0.0,1.0,100,0.00,,,-99.99,WeatherLink 5.7,2013-05-20 13:21:00,
2013-05-20 09:31:00,60.8,60.8,30.12,North,-999,0.0,1.0,100,0.00,,,-99.99,WeatherLink 5.7,2013-05-20 13:31:00,
2013-05-20 09:40:00,61.2,61.2,30.13,North,-999,0.0,0.0,100,0.00,,,-99.99,WeatherLink 5.7,2013-05-20 13:40:00,
2013-05-20 09:50:00,61.6,61.6,30.12,North,-999,0.0,0.0,100,0.00,,,-99.99,WeatherLink 5.7,2013-05-20 13:50:00,
2013-05-20 10:00:00,62.0,62.0,30.12,North,-999,0.0,0.0,100,0.00,,,-99.99,WeatherLink 5.7,2013-05-20 14:00:00,
2013-05-20 10:11:00,62.5,62.5,30.12,North,-999,0.0,0.0,100,0.00,,,-99.99,WeatherLink 5.7,2013-05-20 14:11:00,
2013-05-20 10:20:00,63.0,63.0,30.11,North,-999,0.0,0.0,100,0.00,,,-99.99,WeatherLink 5.7,2013-05-20 14:20:00,
2013-05-20 10:30:00,63.5,63.5,30.12,North,-999,0.0,1.0,100,0.00,,,-99.99,WeatherLink 5.7,2013-05-20 14:30:00,
2013-05-20 10:40:00,64.0,64.0,30.11,North,-999,0.0,1.0,100,0.00,,,-99.99,WeatherLink 5.7,2013-05-20 14:40:00,
2013-05-20 10:50:00,64.4,64.4,30.11,East,90,0.0,1.0,100,0.00,,,-99.99,WeatherLink 5.7,2013-05-20 14:50:00,
2013-05-20 11:01:00,64.6,64.6,30.12,East,90,0.0,1.0,100,0.00,,,-99.99,WeatherLink 5.7,2013-05-20 15:01:00,
2013-05-20 11:10:00,65.0,-99.9,30.11,East,90,0.0,1.0,-999,0.00,,,-99.99,WeatherLink 5.7,2013-05-20 15:10:00,
2013-05-20 11:20:00,65.4,65.4,30.10,East,90,0.0,1.0,100,0.00,,,-99.99,WeatherLink 5.7,2013-05-20 15:20:00,
2013-05-20 11:30:00,66.1,65.2,30.10,SE,135,0.0,1.0,97,0.00,,,-99.99,WeatherLink 5.7,2013-05-20 15:30:00,
2013-05-20 11:40:00,66.9,64.2,30.09,South,180,0.0,1.0,91,0.00,,,-99.99,WeatherLink 5.7,2013-05-20 15:40:00,
2013-05-20 11:50:00,67.7,64.7,30.09,ENE,67,0.0,3.0,90,0.00,,,-99.99,WeatherLink 5.7,2013-05-20 15:50:00,
2013-05-20 12:00:00,68.1,64.7,30.08,East,90,0.0,2.0,89,0.00,,,-99.99,WeatherLink 5.7,2013-05-20 16:00:00,
2013-05-20 12:10:00,68.5,64.1,30.08,ESE,112,1.0,3.0,86,0.00,,,-99.99,WeatherLink 5.7,2013-05-20 16:10:00,
2013-05-20 12:20:00,69.4,64.7,30.08,North,0,1.0,3.0,85,0.00,,,-99.99,WeatherLink 5.7,2013-05-20 16:20:00,
2013-05-20 12:30:00,70.1,65.0,30.08,NE,45,0.0,3.0,84,0.00,,,-99.99,WeatherLink 5.7,2013-05-20 16:30:00,
2013-05-20 12:41:00,70.9,65.1,30.07,NNE,22,0.0,3.0,82,0.00,,,-99.99,WeatherLink 5.7,2013-05-20 16:41:00,
2013-05-20 12:51:00,71.7,65.6,30.07,NNE,22,1.0,3.0,81,0.00,,,-99.99,WeatherLink 5.7,2013-05-20 16:51:00,
2013-05-20 13:01:00,72.0,64.8,30.06,East,90,0.0,3.0,78,0.00,,,-99.99,WeatherLink 5.7,2013-05-20 17:01:00,
2013-05-20 13:11:00,72.5,64.9,30.07,East,90,1.0,3.0,77,0.00,,,-99.99,WeatherLink 5.7,2013-05-20 17:11:00,
2013-05-20 13:21:00,73.0,64.6,30.06,East,90,0.0,2.0,75,0.00,,,-99.99,WeatherLink 5.7,2013-05-20 17:21:00,
2013-05-20 13:31:00,73.4,64.6,30.06,NNE,22,1.0,4.0,74,0.01,,,-99.99,WeatherLink 5.7,2013-05-20 17:31:00,
2013-05-20 13:41:00,73.7,64.9,30.05,North,0,0.0,3.0,74,0.01,,,-99.99,WeatherLink 5.7,2013-05-20 17:41:00,
2013-05-20 13:51:00,73.7,64.1,30.05,East,90,0.0,3.0,72,0.01,,,-99.99,WeatherLink 5.7,2013-05-20 17:51:00,
2013-05-20 14:01:00,73.8,65.0,30.05,NE,45,0.0,2.0,74,0.01,,,-99.99,WeatherLink 5.7,2013-05-20 18:01:00,
2013-05-20 14:11:00,73.7,65.3,30.05,East,90,0.0,2.0,75,0.01,,,-99.99,WeatherLink 5.7,2013-05-20 18:11:00,
2013-05-20 14:21:00,74.5,65.7,30.05,East,90,0.0,3.0,74,0.01,,,-99.99,WeatherLink 5.7,2013-05-20 18:21:00,
2013-05-20 14:31:00,74.5,65.7,30.05,East,90,0.0,2.0,74,0.00,,,-99.99,WeatherLink 5.7,2013-05-20 18:31:00,
2013-05-20 14:41:00,74.9,65.3,30.05,NNE,22,1.0,3.0,72,0.00,,,-99.99,WeatherLink 5.7,2013-05-20 18:41:00,
2013-05-20 14:51:00,74.7,65.9,30.05,NNE,22,0.0,2.0,74,0.00,,,-99.99,WeatherLink 5.7,2013-05-20 18:51:00,
2013-05-20 15:01:00,74.3,65.5,30.05,NNE,22,0.0,2.0,74,0.00,,,-99.99,WeatherLink 5.7,2013-05-20 19:01:00,
2013-05-20 15:11:00,73.9,65.5,30.05,North,0,0.0,1.0,75,0.00,,,-99.99,WeatherLink 5.7,2013-05-20 19:11:00,
2013-05-20 15:21:00,73.6,64.8,30.05,North,0,0.0,2.0,74,0.00,,,-99.99,WeatherLink 5.7,2013-05-20 19:21:00,
2013-05-20 15:31:00,73.6,65.6,30.05,NNE,22,0.0,1.0,76,0.00,,,-99.99,WeatherLink 5.7,2013-05-20 19:31:00,
2013-05-20 15:41:00,73.9,65.9,30.04,NNE,22,0.0,2.0,76,0.00,,,-99.99,WeatherLink 5.7,2013-05-20 19:41:00,
2013-05-20 15:51:00,75.0,65.8,30.03,NE,45,0.0,2.0,73,0.00,,,-99.99,WeatherLink 5.7,2013-05-20 19:51:00,
2013-05-20 16:01:00,75.9,67.0,30.02,NE,45,0.0,1.0,74,0.00,,,-99.99,WeatherLink 5.7,2013-05-20 20:01:00,
2013-05-20 16:11:00,76.2,66.1,30.02,East,90,0.0,3.0,71,0.00,,,-99.99,WeatherLink 5.7,2013-05-20 20:11:00,
2013-05-20 16:21:00,76.0,66.3,30.02,ENE,67,0.0,3.0,72,0.00,,,-99.99,WeatherLink 5.7,2013-05-20 20:21:00,
2013-05-20 16:31:00,75.9,66.6,30.02,ENE,67,0.0,2.0,73,0.00,,,-99.99,WeatherLink 5.7,2013-05-20 20:31:00,
2013-05-20 16:41:00,75.7,66.8,30.02,ENE,67,0.0,2.0,74,0.00,,,-99.99,WeatherLink 5.7,2013-05-20 20:41:00,
2013-05-20 16:51:00,75.2,65.9,30.02,NE,45,1.0,3.0,73,0.00,,,-99.99,WeatherLink 5.7,2013-05-20 20:51:00,
2013-05-20 17:01:00,75.1,65.9,30.01,NE,45,0.0,3.0,73,0.00,,,-99.99,WeatherLink 5.7,2013-05-20 21:01:00,
2013-05-20 17:11:00,75.2,65.6,30.01,NNE,22,0.0,2.0,72,0.00,,,-99.99,WeatherLink 5.7,2013-05-20 21:11:00,
2013-05-20 17:21:00,75.2,65.6,30.02,ENE,67,0.0,1.0,72,0.00,,,-99.99,WeatherLink 5.7,2013-05-20 21:21:00,
2013-05-20 17:31:00,75.2,66.3,30.02,ENE,67,0.0,2.0,74,0.00,,,-99.99,WeatherLink 5.7,2013-05-20 21:31:00,
2013-05-20 17:41:00,74.9,66.1,30.02,NE,45,0.0,2.0,74,0.00,,,-99.99,WeatherLink 5.7,2013-05-20 21:41:00,
2013-05-20 17:51:00,74.8,65.2,30.01,ENE,67,0.0,2.0,72,0.00,,,-99.99,WeatherLink 5.7,2013-05-20 21:51:00,
2013-05-20 18:01:00,74.6,65.8,30.01,NE,45,0.0,2.0,74,0.00,,,-99.99,WeatherLink 5.7,2013-05-20 22:01:00,
2013-05-20 18:11:00,74.2,66.1,30.01,NE,45,0.0,1.0,76,0.00,,,-99.99,WeatherLink 5.7,2013-05-20 22:11:00,
2013-05-20 18:21:00,73.6,66.3,30.02,NE,45,0.0,1.0,78,0.00,,,-99.99,WeatherLink 5.7,2013-05-20 22:21:00,
2013-05-20 18:31:00,73.2,66.3,30.01,NE,45,0.0,1.0,79,0.00,,,-99.99,WeatherLink 5.7,2013-05-20 22:31:00,
2013-05-20 18:41:00,72.9,65.3,30.01,NE,45,0.0,1.0,77,0.00,,,-99.99,WeatherLink 5.7,2013-05-20 22:41:00,
2013-05-20 18:51:00,72.8,65.2,30.01,NE,45,0.0,1.0,77,0.00,,,-99.99,WeatherLink 5.7,2013-05-20 22:51:00,
2013-05-20 19:01:00,72.7,65.4,30.01,North,-999,0.0,1.0,78,0.00,,,-99.99,WeatherLink 5.7,2013-05-20 23:01:00,
2013-05-20 19:11:00,72.3,65.1,30.01,NE,45,0.0,1.0,78,0.00,,,-99.99,WeatherLink 5.7,2013-05-20 23:11:00,
2013-05-20 19:21:00,72.0,65.1,30.01,North,-999,0.0,0.0,79,0.00,,,-99.99,WeatherLink 5.7,2013-05-20 23:21:00,
2013-05-20 19:31:00,71.6,64.7,30.02,North,-999,0.0,0.0,79,0.00,,,-99.99,WeatherLink 5.7,2013-05-20 23:31:00,
2013-05-20 19:41:00,71.3,64.4,30.01,North,-999,0.0,0.0,79,0.00,,,-99.99,WeatherLink 5.7,2013-05-20 23:41:00,
2013-05-20 19:51:00,71.0,64.5,30.00,North,-999,0.0,0.0,80,0.00,,,-99.99,WeatherLink 5.7,2013-05-20 23:51:00,
2013-05-20 20:01:00,70.6,64.5,30.01,North,-999,0.0,0.0,81,0.00,,,-99.99,WeatherLink 5.7,2013-05-21 00:01:00,
2013-05-20 20:11:00,70.3,64.5,30.00,North,-999,0.0,0.0,82,0.00,,,-99.99,WeatherLink 5.7,2013-05-21 00:11:00,
2013-05-20 20:21:00,69.8,64.4,30.01,North,-999,0.0,0.0,83,0.00,,,-99.99,WeatherLink 5.7,2013-05-21 00:21:00,
2013-05-20 20:31:00,69.4,64.0,30.02,North,-999,0.0,0.0,83,0.00,,,-99.99,WeatherLink 5.7,2013-05-21 00:31:00,
2013-05-20 20:41:00,69.1,64.1,30.02,North,-999,0.0,0.0,84,0.00,,,-99.99,WeatherLink 5.7,2013-05-21 00:41:00,
2013-05-20 20:51:00,68.8,64.1,30.03,North,-999,0.0,0.0,85,0.00,,,-99.99,WeatherLink 5.7,2013-05-21 00:51:00,
2013-05-20 21:01:00,68.5,63.8,30.02,North,-999,0.0,0.0,85,0.00,,,-99.99,WeatherLink 5.7,2013-05-21 01:01:00,
2013-05-20 21:11:00,67.9,63.9,30.03,North,-999,0.0,0.0,87,0.00,,,-99.99,WeatherLink 5.7,2013-05-21 01:11:00,
2013-05-20 21:21:00,67.6,63.6,30.03,North,-999,0.0,0.0,87,0.00,,,-99.99,WeatherLink 5.7,2013-05-21 01:21:00,
2013-05-20 21:31:00,67.3,63.3,30.03,North,-999,0.0,0.0,87,0.00,,,-99.99,WeatherLink 5.7,2013-05-21 01:31:00,
2013-05-20 21:41:00,67.0,63.3,30.03,North,-999,0.0,0.0,88,0.00,,,-99.99,WeatherLink 5.7,2013-05-21 01:41:00,
2013-05-20 21:51:00,66.8,63.1,30.03,North,-999,0.0,0.0,88,0.00,,,-99.99,WeatherLink 5.7,2013-05-21 01:51:00,
2013-05-20 22:01:00,66.3,63.0,30.03,North,-999,0.0,0.0,89,0.00,,,-99.99,WeatherLink 5.7,2013-05-21 02:01:00,
2013-05-20 22:11:00,65.9,62.6,30.03,North,-999,0.0,0.0,89,0.00,,,-99.99,WeatherLink 5.7,2013-05-21 02:11:00,
2013-05-20 22:21:00,65.7,62.7,30.02,North,-999,0.0,0.0,90,0.00,,,-99.99,WeatherLink 5.7,2013-05-21 02:21:00,
2013-05-20 22:31:00,65.5,62.5,30.02,North,-999,0.0,0.0,90,0.00,,,-99.99,WeatherLink 5.7,2013-05-21 02:31:00,
2013-05-20 22:41:00,65.2,62.2,30.03,North,-999,0.0,0.0,90,0.00,,,-99.99,WeatherLink 5.7,2013-05-21 02:41:00,
2013-05-20 22:51:00,65.0,62.0,30.02,North,-999,0.0,1.0,90,0.00,,,-99.99,WeatherLink 5.7,2013-05-21 02:51:00,
2013-05-20 23:01:00,64.7,62.0,30.01,North,-999,0.0,0.0,91,0.00,,,-99.99,WeatherLink 5.7,2013-05-21 03:01:00,
2013-05-20 23:11:00,64.6,61.9,30.00,North,-999,0.0,0.0,91,0.00,,,-99.99,WeatherLink 5.7,2013-05-21 03:11:00,
2013-05-20 23:21:00,64.6,61.9,30.00,North,-999,0.0,0.0,91,0.00,,,-99.99,WeatherLink 5.7,2013-05-21 03:21:00,
2013-05-20 23:31:00,64.8,62.1,30.02,North,-999,0.0,0.0,91,0.00,,,-99.99,WeatherLink 5.7,2013-05-21 03:31:00,
2013-05-20 23:41:00,64.7,62.0,30.01,North,-999,0.0,0.0,91,0.00,,,-99.99,WeatherLink 5.7,2013-05-21 03:41:00,
2013-05-20 23:51:00,64.7,62.3,30.00,North,-999,0.0,0.0,92,0.00,,,-99.99,WeatherLink 5.7,2013-05-21 03:51:00,